Preview of NWS' New Version of Forecast
This preview is not operational and should not be used for support decisions.

Regional Weather Roundup (RWR)

Issued by National Weather Service (NWS)

                            
000
ASUS45 KABQ 181910
RWRNM 
NEW MEXICO REGIONAL WEATHER ROUNDUP
NATIONAL WEATHER SERVICE ALBUQUERQUE NM
100 PM MDT SUN AUG 18 2019

NOTE: "FAIR" MEANS FEW OR NO CLOUDS BELOW 12,000 FEET AGL WITH NO
       SIGNIFICANT WEATHER OR OBSTRUCTIONS TO VISION.

      THIS PRODUCT IS RELEASED AS TWO VERSIONS.  ONE VERSION NEAR
      THE TOP OF THE HOUR CONTAINING PRELIMINARY DATA FROM ALBUQUERQUE
      AND OTHER STATIONS.  A FINAL VERSION WITH ADDITIONAL DATA IS 
      ISSUED ABOUT 10 MINUTES AFTER THE HOUR.
 
NMZ501-503-504-510>518-182000-
NORTHWEST PLATEAU/NORTHCENTRAL MOUNTAINS
  
CITY           SKY/WX    TMP DP  RH WIND       PRES   REMARKS
FARMINGTON     FAIR      88  23   9 VRB6      30.15F                  
LOS ALAMOS       N/A     80  25  13 E8        30.29S                  
SANTA FE       FAIR      85  30  13 MISG      30.20F                  
TAOS             N/A     84  23  10 VRB6      30.26F                  
ANGEL FIRE     FAIR      77  30  17 W3        30.36R                  

$$
NMZ402-403-502-505>509-182000-
WESTCENTRAL MOUNTAINS/SOUTHWEST MOUNTAINS
  
CITY           SKY/WX    TMP DP  RH WIND       PRES   REMARKS
GALLUP         FAIR      86  25  11 SE10G18   30.25S                  
GRANTS         FAIR      85  27  12 NE6       30.25F                  
SILVER CITY    FAIR      89  35  14 NW16G22   30.16S                  

$$
NMZ407-409-411-412-182000-
SOUTHERN DESERTS
  
CITY           SKY/WX    TMP DP  RH WIND       PRES   REMARKS
DEMING         FAIR      96  32  10 W14G21    30.06F                  
LAS CRUCES     FAIR      96  31  10 N5        30.07F                  
HOLLOMAN AFB   PTSUNNY   97  36  12 W7        30.03F                  
ALAMOGORDO     FAIR      95  34  11 NE8       30.04F                  
T OR C         FAIR      94  30  10 E9        30.09F                  

$$
NMZ519>523-182000-
CENTRAL VALLEYS/CENTRAL HIGHLANDS
  
CITY           SKY/WX    TMP DP  RH WIND       PRES   REMARKS
ALBUQUERQUE    FAIR      90  34  13 VRB5      30.14F                  
DOUBLE EAGLE   MOSUNNY   90  32  12 N9        30.18F                  
MORIARTY ARPT  FAIR      91  28  10 W6        30.19F                  
CLINES CORNERS FAIR      87  26  11 W13G22    30.26S                  
BELEN          FAIR      91  29  11 NW7       30.14F                  
SOCORRO        FAIR      94  32  11 NE8G16    30.10F                  

$$
NMZ524>526-539-540-182000-
SOUTHCENTRAL MOUNTAINS
  
CITY           SKY/WX    TMP DP  RH WIND       PRES   REMARKS
RUIDOSO        PTSUNNY   84  36  17 SW8       30.26S                  

$$
NMZ527>531-182000-
NORTHEAST HIGHLANDS/NORTHEAST PLAINS
  
CITY           SKY/WX    TMP DP  RH WIND       PRES   REMARKS
LAS VEGAS      FAIR      88  22   9 S9        30.22F                  
RATON          FAIR      88  31  13 VRB5      30.14F                  
CLAYTON        FAIR      89  52  28 NE13      30.07S                  

$$
NMZ532>537-182000-
EASTCENTRAL PLAINS
  
CITY           SKY/WX    TMP DP  RH WIND       PRES   REMARKS
TUCUMCARI      FAIR      98  37  12 VRB3      29.97F                  
CANNON AFB     FAIR      98  32  10 W7        30.02S                  
CLOVIS AIRPORT FAIR      98  32  10 VRB3      30.01S                  

$$
NMZ028-029-538-182000-
SOUTHEAST PLAINS
  
CITY           SKY/WX    TMP DP  RH WIND       PRES   REMARKS
ROSWELL        FAIR     101  40  12 MISG      29.95F HX  96           
ARTESIA        FAIR      99  43  14 VRB5      29.96F                  
CARLSBAD       FAIR      99  42  14 N6        29.92F                  
HOBBS          SUNNY     97  50  20 VRB3      29.96F                  


$$